GW0791 Weather Reports


time (UTC)temp
C
wind
direction
speed
KPH
gust
KPH
rain 1hr
cm
rain 24hr
cm
rain mn
cm
humidity
%
barometer
mb
20260903101549 21 122 0.0 0.0 0.00 0.00 0.00 96 1017.5
20260903100044 21 122 0.0 0.0 0.00 0.00 0.00 95 1017.4
20260903094541 21 122 0.0 0.0 0.00 0.00 0.00 96 1017.3
20260903093047 21 122 0.0 0.0 0.00 0.00 0.00 96 1017.5
20260903091539 21 122 0.0 0.0 0.00 0.00 0.00 95 1017.4
20260903090039 22 122 0.0 0.0 0.00 0.00 0.00 95 1017.5
20260903084534 22 122 0.0 0.0 0.00 0.00 0.00 95 1017.4
20260903083037 22 122 0.0 0.0 0.00 0.00 0.00 95 1017.3
20260903081534 22 122 0.0 0.0 0.00 0.00 0.00 95 1017.4
20260903080031 22 122 0.0 0.0 0.00 0.00 0.00 95 1017.3
20260903074631 22 122 0.0 0.0 0.00 0.00 0.00 95 1017.2
20260903073059 22 122 0.0 0.0 0.00 0.00 0.00 95 1017.2
20260903071602 22 122 0.0 0.0 0.00 0.00 0.00 95 1017.1
20260903070100 22 122 0.0 0.0 0.00 0.00 0.00 95 1017.2
20260903064553 22 122 0.0 0.0 0.00 0.00 0.00 95 1017.3
20260903063113 22 122 0.0 0.0 0.00 0.00 0.00 95 1017.2
20260903061551 22 122 0.0 0.0 0.00 0.00 0.00 95 1017.1
20260903060038 23 122 0.0 0.0 0.00 0.00 0.00 95 1017.1
20260903054535 23 122 0.0 0.0 0.00 0.00 0.00 95 1016.9
20260903053031 23 122 0.0 0.0 0.00 0.00 0.00 95 1017.1
20260903050031 23 122 0.0 0.0 0.00 0.00 0.00 95 1017.1
20260903044529 23 122 0.0 0.0 0.00 0.00 0.00 94 1017.1
20260903043029 23 122 0.0 0.0 0.00 0.00 0.00 94 1016.8
20260903040029 23 122 0.0 0.0 0.00 0.00 0.00 94 1017.0
20260903034531 24 122 0.0 0.0 0.00 0.00 0.00 94 1017.0
20260903033030 24 122 0.0 0.0 0.00 0.00 0.00 94 1017.1
20260903030007 24 122 0.0 0.0 0.00 0.00 0.00 93 1017.3
20260903024505 25 122 0.0 0.0 0.00 0.00 0.00 93 1017.3
20260903023038 25 122 0.0 0.0 0.00 0.00 0.00 93 1017.2
20260903021534 25 122 0.0 0.0 0.00 0.00 0.00 92 1017.2
20260903020030 25 122 0.0 0.0 0.00 0.00 0.00 92 1017.3
20260903014530 25 122 0.0 0.0 0.00 0.00 0.00 91 1017.2
20260903013030 26 122 0.0 0.0 0.00 0.00 0.00 91 1017.1
20260903011541 26 122 0.0 0.0 0.00 0.00 0.00 90 1016.9
20260903010031 26 122 0.0 0.0 0.00 0.00 0.00 89 1016.5
20260903004526 26 122 0.0 0.0 0.00 0.00 0.00 88 1016.3
20260903003026 27 122 0.0 0.0 0.00 0.00 0.00 88 1016.3
20260903001526 27 122 0.0 0.0 0.00 0.00 0.00 87 1016.2
20260903000055 28 122 0.0 0.0 0.00 0.00 0.00 86 1016.3
20260902234555 28 122 0.0 0.0 0.00 0.00 0.00 85 1016.3
20260902233057 28 122 0.0 0.0 0.00 0.00 0.00 83 1016.2
20260902231603 29 122 0.0 0.0 0.00 0.00 0.00 81 1016.3
20260902230051 30 122 0.0 0.0 0.00 0.00 0.00 79 1016.4
20260902224557 30 122 0.0 0.0 0.00 0.00 0.00 78 1016.4
20260902223048 31 122 0.0 0.0 0.00 0.00 0.00 76 1016.3
20260902221550 32 122 0.0 1.6 0.00 0.00 0.00 72 1016.3
20260902220047 33 122 0.0 1.6 0.00 0.00 0.00 69 1016.5
20260902214545 33 122 0.0 1.6 0.00 0.00 0.00 65 1016.4
20260902213051 34 122 0.0 1.6 0.00 0.00 0.00 62 1016.4
20260902211549 35 122 1.6 4.8 0.00 0.00 0.00 60 1016.6
20260902210038 35 232 0.0 0.0 0.00 0.00 0.00 58 1016.6
20260902204537 35 307 0.0 1.6 0.00 0.00 0.00 58 1016.7
20260902203033 35 328 1.6 9.7 0.00 0.00 0.00 59 1016.9
20260902201537 35 36 0.0 3.2 0.00 0.00 0.00 59 1017.0
20260902200034 35 72 0.0 6.4 0.00 0.00 0.00 60 1017.2
20260902194527 35 219 0.0 3.2 0.00 0.00 0.00 58 1017.4
20260902193023 35 280 1.6 9.7 0.00 0.00 0.00 55 1017.5
20260902191533 35 341 3.2 8.0 0.00 0.00 0.00 55 1017.5
20260902190119 34 248 3.2 9.7 0.00 0.00 0.00 58 1017.6
20260902184516 35 45 4.8 12.9 0.00 0.00 0.00 54 1017.8
20260902183019 35 9 1.6 11.3 0.00 0.00 0.00 56 1018.1
20260902181512 34 256 1.6 6.4 0.00 0.00 0.00 55 1018.1
20260902180012 34 51 1.6 4.8 0.00 0.00 0.00 62 1018.3
20260902174508 33 36 1.6 8.0 0.00 0.00 0.00 58 1018.5
20260902173005 34 208 0.0 9.7 0.00 0.00 0.00 61 1018.5
20260902171503 33 331 1.6 6.4 0.00 0.00 0.00 61 1018.8
20260902170059 33 40 3.2 12.9 0.00 0.00 0.00 63 1019.0
20260902164558 32 24 1.6 9.7 0.00 0.00 0.00 64 1019.5
20260902163100 32 10 0.0 6.4 0.00 0.00 0.00 67 1019.6
20260902161554 32 327 1.6 6.4 0.00 0.00 0.00 67 1019.7
20260902160050 31 116 0.0 4.8 0.00 0.00 0.00 69 1019.7
20260902154545 31 32 3.2 8.0 0.00 0.00 0.00 71 1019.8
20260902153040 31 14 4.8 9.7 0.00 0.00 0.00 72 1019.8
20260902151538 30 44 0.0 8.0 0.00 0.00 0.00 75 1019.8
20260902150034 30 329 1.6 4.8 0.00 0.00 0.00 79 1019.8
20260902144535 29 24 3.2 6.4 0.00 0.00 0.00 78 1019.8
20260902143027 28 13 0.0 0.0 0.00 0.00 0.00 80 1019.6
20260902141525 27 34 0.0 0.0 0.00 0.00 0.00 84 1019.7
20260902140018 26 28 0.0 0.0 0.00 0.00 0.00 89 1019.7
20260902134545 25 355 0.0 0.0 0.00 0.00 0.00 94 1019.7
20260902133040 24 355 0.0 0.0 0.00 0.00 0.00 96 1019.6
20260902131532 23 355 0.0 0.0 0.00 0.00 0.00 96 1019.5
20260902130027 22 355 0.0 0.0 0.00 0.00 0.00 97 1019.6
20260902124525 22 355 0.0 0.0 0.00 0.00 0.00 97 1019.6
20260902123023 21 355 0.0 0.0 0.00 0.00 0.00 97 1019.6
20260902121518 21 355 0.0 0.0 0.00 0.00 0.00 97 1019.4
20260902120017 20 355 0.0 0.0 0.00 0.00 0.00 96 1019.4
20260902114516 20 350 0.0 0.0 0.00 0.00 0.00 96 1019.3
20260902113030 20 350 0.0 0.0 0.00 0.00 0.00 96 1019.1
20260902111548 20 350 0.0 0.0 0.00 0.00 0.00 96 1019.0
20260902110046 20 350 0.0 0.0 0.00 0.00 0.00 96 1019.0
20260902104550 20 350 0.0 0.0 0.00 0.00 0.00 96 1019.0
20260902103042 20 349 0.0 0.0 0.00 0.00 0.00 95 1019.0